Regional Weather Roundup
Issued by NWS

Home | Current Version | Previous Version | Graphics & Text | Print | Product List | Glossary On
Versions: 1 2 3 4 5 6 7 8 9 10 11 12 13 14 15 16 17 18 19 20 21 22 23 24 25 26 27 28 29 30 31 32 33 34 35 36 37 38 39 40 41 42 43 44 45 46 47 48 49 50
000
ASUS45 KCYS 310510
RWRWY

WYOMING REGIONAL WEATHER ROUNDUP
NATIONAL WEATHER SERVICE CHEYENNE WY
1000 PM MST FRI JAN 30 2015

NOTE:  "FAIR" INDICATES FEW OR NO CLOUDS BELOW 12,000 FEET
WITH NO SIGNIFICANT WEATHER AND/OR OBSTRUCTIONS TO VISIBILITY.

WYZ001-310600-
YELLOWSTONE NATIONAL PARK

CITY           SKY/WX    TMP DP  RH WIND       PRES   REMARKS
LK YELLOWSTONE   N/A      4   0  83 CALM      30.11F
W YELLOWSTONE  NOT AVBL

$$
WYZ002>013-054>058-071-098>099-310600-
NORTHERN WYOMING

CITY           SKY/WX    TMP DP  RH WIND       PRES   REMARKS
JACKSON        FAIR      10  10 100 N7        30.10F WCI   0
CODY           FAIR      30  21  69 S5        30.07F WCI  25
GREYBULL       FOG       25  24  96 CALM      30.12F VSB 1/4
WORLAND        FAIR      20  17  88 CALM      30.10F
SHERIDAN       FAIR      28  20  71 NW6       30.06F WCI  22
BUFFALO        FAIR      30  18  60 S8        30.07F WCI  22
GILLETTE       FAIR      25  22  88 S6        30.08F WCI  18
HULETT           N/A    N/A N/A N/A MISG        N/A
NEWCASTLE      FAIR      30  23  74 E5        30.10S WCI  25

$$
WYZ014>020-022>026-101>103-310600-
CENTRAL WYOMING

CITY           SKY/WX    TMP DP  RH WIND       PRES   REMARKS
BIG PINEY      CLOUDY    27  22  81 SW5       30.07F WCI  22
PINEDALE       CLOUDY    25  21  86 NW5       30.07S WCI  19
DUBOIS         FAIR      27  18  69 SW5       30.08S WCI  21
LANDER         FAIR      33  26  75 CALM      30.08F
RIVERTON       FAIR      32  27  81 CALM      30.09F
CASPER         FAIR      29  23  78 NW3       30.08F
DOUGLAS        FAIR      29  23  78 CALM      30.10S

$$
WYZ021-027>030-104>119-310600-
SOUTHERN WYOMING

CITY           SKY/WX    TMP DP  RH WIND       PRES   REMARKS
EVANSTON       SNOW      31  29  92 N7        30.02F VSB 1/2 WCI  24
KEMMERER       LGT SNOW  30  28  93 NE13      30.05S WCI  20
FORT BRIDGER   LGT SNOW  31  31 100 NE12      30.07R WCI  22
ROCK SPRINGS   CLOUDY    29  26  89 NE16      30.04R WCI  17
DIXON          CLOUDY    37  31  79 CALM      29.99S
RAWLINS        FAIR      32  21  64 NE13      30.02F WCI  22
SARATOGA       CLOUDY    32  30  93 S5        30.00F WCI  27
LARAMIE        CLOUDY    30  21  69 E5        30.03F WCI  25
CHEYENNE       FAIR      33  22  63 N9        30.05F WCI  25
TORRINGTON     FAIR      35  26  69 N8        30.07F WCI  29
PINE BLUFFS    CLOUDY    32  27  80 NW6       30.07F WCI  26

$$


USA.gov is the U.S. government's official web portal to all federal, state and local government web resources and services.